Tracking 19563 objects as of 20-Mar-2019
HD Live streaming from Space Station
objects crossing your sky now

RADUGA 12

Track RADUGA 12 now!
RADUGA 12 is classified as:


NORAD ID: 13974
Int'l Code: 1983-028A
Perigee: 35,768.3 km
Apogee: 35,811.6 km
Inclination: 13.3 °
Period: 1,435.9 minutes
Semi major axis: 42160 km
RCS: 0.1428 m2 (medium)
Launch date: April 8, 1983
Source: Commonwealth of Independent States (former USSR) (CIS)
Launch site: TYURATAM MISSILE AND SPACE COMPLEX (TTMTR)
aabbcc
Your satellite tracking list
Your tracking list is empty




NASA's NSSDC Master Catalog

Two Line Element Set (TLE):
1 13974U 83028A   19078.69910310 -.00000201  00000-0  00000+0 0  9992
2 13974  13.2598 330.6044 0005133   3.4722 178.0236  1.00285219142837
Source of the keplerian elements: AFSPC